Location: Les Moreaux
(47.2278°N, 1.4966°E)
Time: 19:24:55
(UTC+00:00)

Meteor 1-26 Rocket - Pass Details

Date: 19 May 2025
Orbit: 805 x 928 km, 81.3° (Epoch: 21 June)

Event Time Altitude Azimuth Distance (km) Brightness Sun altitude
Exits shadow 20:53:42 - 174° (S) 2,628 6.3 -11.9°
Reaches altitude 10° 20:53:55 10° 173° (S) 2,550 6.2 -12.0°
Maximum altitude 20:59:37 59° 95° (E) 1,042 4.4 -12.6°
Drops below altitude 10° 21:05:31 10° 18° (NNE) 2,630 7.2 -13.2°
Sets 21:08:03 0° 15° (NNE) 3,584 8.0 -13.5°
